This is the latest recevied weather packets stored in our database for station/object KC3SOZ. If no packets are shown the sender has not sent any weather packets the latest 10 day(s).
| Time | Temp. | Humidity | Pressure | Rain* | Wind** | Luminosity | Snow |
|---|---|---|---|---|---|---|---|
| 1777817239 | 8.89° C | 55% | 1016.1 hPa | 0 mm | - | 630 W/m² | - |
| 1777816937 | 8.33° C | 52% | 1016.2 hPa | 0 mm | - | 588 W/m² | - |
| 1777816633 | 7.78° C | 58% | 1016 hPa | 0 mm | - | 580 W/m² | - |
| 1777816330 | 7.78° C | 54% | 1016.3 hPa | 0 mm | - | 122 W/m² | - |
| 1777816027 | 7.78° C | 57% | 1016.3 hPa | 0 mm | - | 547 W/m² | - |
| 1777815725 | 7.78° C | 59% | 1016.3 hPa | 0 mm | - | 556 W/m² | - |
| 1777815422 | 7.78° C | 60% | 1016.3 hPa | 0 mm | - | 453 W/m² | - |
| 1777815119 | 7.78° C | 59% | 1016.4 hPa | 0 mm | - | 501 W/m² | - |
| 1777814815 | 7.78° C | 63% | 1016.3 hPa | 0 mm | - | 477 W/m² | - |
| 1777814512 | 7.22° C | 63% | 1016.3 hPa | 0 mm | - | 458 W/m² | - |
| 1777814209 | 7.22° C | 63% | 1016.4 hPa | 0 mm | - | 448 W/m² | - |
| 1777813906 | 7.22° C | 64% | 1016.2 hPa | 0 mm | - | 427 W/m² | - |
| 1777813603 | 7.22° C | 65% | 1016.4 hPa | 0 mm | - | 420 W/m² | - |
| 1777813301 | 6.67° C | 68% | 1016.6 hPa | 0 mm | - | 400 W/m² | - |
| 1777812998 | 6.67° C | 67% | 1016.4 hPa | 0 mm | - | 179 W/m² | - |
| 1777812696 | 6.67° C | 66% | 1016.3 hPa | 0 mm | - | 367 W/m² | - |
| 1777812392 | 6.11° C | 68% | 1016.6 hPa | 0 mm | - | 343 W/m² | - |
| 1777812091 | 6.11° C | 70% | 1016.5 hPa | 0 mm | - | 325 W/m² | - |
| 1777811788 | 6.11° C | 70% | 1016.5 hPa | 0 mm | - | 311 W/m² | - |
| 1777811485 | 6.11° C | 70% | 1016.5 hPa | 0 mm | - | 292 W/m² | - |
| 1777811181 | 5.56° C | 69% | 1016.3 hPa | 0 mm | - | 274 W/m² | - |
| 1777810879 | 6.11° C | 69% | 1016.4 hPa | 0 mm | - | 124 W/m² | - |
| 1777810575 | 5.56° C | 70% | 1016.4 hPa | 0 mm | - | 248 W/m² | - |
| 1777810273 | 5.56° C | 70% | 1016.2 hPa | 0 mm | - | 237 W/m² | - |
| 1777809968 | 5.56° C | 73% | 1016.1 hPa | 0 mm | - | 163 W/m² | - |
* Rain latest hour (hover to see other rain measurements)
** Current wind speed in m/s (hover to see current wind gust speed)